{"data":{"norad_id":47407,"epoch":"2026-09-20T03:19:15.485952Z","epoch_age_seconds":56940,"freshness":"FRESH","line1":"1 47407U 21005BL  26263.13837368  .00020124  00000+0  60027-3 0  9994","line2":"2 47407  53.1575 213.4034 0003756  74.8917 285.2501 15.34652355313159","mean_motion":15.34652355,"eccentricity":0.0003756,"inclination_deg":53.1575,"raan_deg":213.4034,"arg_perigee_deg":74.8917,"mean_anomaly_deg":285.2501,"bstar":0.00060027,"rev_number":31315,"period_min":93.832325953717,"perigee_km":459.38415283521,"apogee_km":464.52242866162,"semimajor_km":6840.0902907484,"source":"CELESTRAK","updated_at":"2026-09-20T09:00:38.595960Z"}}